Weather History for KOGB - October, 2012

Change the Weather History Date:

Monday, October 22, 2012

  Actual Average Record
Temperature  
Mean Temperature 61 °F 63 °F  
Max Temperature 77 °F 75 °F 85 °F (1984)
Min Temperature 45 °F 51 °F 29 °F (1974)
Degree Days  
Heating Degree Days 4 4  
Month to date heating degree days 43 43  
Since 1 July heating degree days 43 47  
Cooling Degree Days 0 2  
Month to date cooling degree days 88 79  
Year to date cooling degree days 2297 2073  
Growing Degree Days 10 (Base 50)    
Moisture  
Dew Point 48 °F    
Average Humidity 71    
Maximum Humidity 93    
Minimum Humidity 36    
Precipitation  
Precipitation 0.00 in 0.09 in 2.03 in (1990)
Month to date precipitation 1.70 2.73  
Year to date precipitation 36.73 39.83  
Sea Level Pressure  
Sea Level Pressure 30.19 in    
Wind  
Wind Speed 1 mph (ENE)    
Max Wind Speed 8 mph    
Max Gust Speed 12 mph    
Visibility 10 miles    
Events      
T = Trace of Precipitation, MM = Missing Value Source: NWS Daily Summary

Daily Weather History Graph

Daily Weather History Graph

Search for Another Location

Airport or City:

Trip Planner

Search our weather history database for the weather conditions in past years. The results will help you decide how hot, cold, wet, or windy it might be!

Date:

Astronomy

Oct. 22, 2012 Rise Set
Actual Time 7:34 AM EDT 6:41 PM EDT
Civil Twilight 7:08 AM EDT 7:06 PM EDT
Nautical Twilight 6:39 AM EDT 7:35 PM EDT
Astronomical Twilight 6:10 AM EDT 8:04 PM EDT
Moon 2:29 PM EDT (10/22) 12:39 AM EDT (10/22)
Length of Visible Light 11h 57m
Length of Day
11h 07m
First Quarter, 56% of the Moon is Illuminated
Oct 22
First Quarter
Oct 29
Full
Nov 6
Last Quarter
Nov 13
New
Nov 20
First Quarter

Hourly Weather History & Observations

Time (EDT) Temp. Dew Point Humidity Pressure Visibility Wind Dir Wind Speed Gust Speed Precip Events Conditions
12:53 AM 50.0 °F 48.0 °F 93% 30.16 in 10.0 mi Calm Calm - N/A   Clear
1:53 AM 50.0 °F 46.9 °F 89% 30.17 in 10.0 mi Calm Calm - N/A   Clear
2:53 AM 48.9 °F 46.9 °F 93% 30.17 in 9.0 mi Calm Calm - N/A   Clear
3:53 AM 46.9 °F 45.0 °F 93% 30.17 in 9.0 mi Calm Calm - N/A   Clear
4:53 AM 46.9 °F 45.0 °F 93% 30.17 in 10.0 mi Calm Calm - N/A   Clear
5:53 AM 46.0 °F 44.1 °F 93% 30.18 in 10.0 mi Calm Calm - N/A   Clear
6:53 AM 46.0 °F 44.1 °F 93% 30.20 in 10.0 mi Calm Calm - N/A   Clear
7:53 AM 46.0 °F 43.0 °F 89% 30.22 in 10.0 mi Calm Calm - N/A   Clear
8:53 AM 51.1 °F 46.9 °F 86% 30.24 in 10.0 mi Calm Calm - N/A   Clear
9:53 AM 60.1 °F 50.0 °F 69% 30.25 in 10.0 mi Calm Calm - N/A   Clear
10:53 AM 66.9 °F 48.0 °F 51% 30.25 in 10.0 mi Calm Calm - N/A   Clear
11:53 AM 70.0 °F 46.0 °F 42% 30.24 in 10.0 mi East 4.6 mph - N/A   Clear
12:53 PM 72.0 °F 46.0 °F 40% 30.22 in 10.0 mi Variable 4.6 mph - N/A   Clear
1:53 PM 73.0 °F 46.9 °F 39% 30.19 in 10.0 mi East 4.6 mph - N/A   Clear
2:53 PM 75.9 °F 48.0 °F 37% 30.16 in 10.0 mi Variable 3.5 mph - N/A   Clear
3:53 PM 75.9 °F 46.9 °F 36% 30.15 in 10.0 mi North 4.6 mph - N/A   Clear
4:53 PM 75.9 °F 46.9 °F 36% 30.14 in 10.0 mi NNE 4.6 mph - N/A   Clear
5:53 PM 73.9 °F 48.9 °F 41% 30.14 in 10.0 mi Calm Calm - N/A   Clear
6:53 PM 64.9 °F 54.0 °F 68% 30.15 in 10.0 mi Calm Calm - N/A   Clear
7:53 PM 61.0 °F 53.1 °F 75% 30.17 in 10.0 mi Calm Calm - N/A   Clear
8:53 PM 57.9 °F 53.1 °F 84% 30.18 in 10.0 mi Calm Calm - N/A   Clear
9:53 PM 55.9 °F 52.0 °F 87% 30.19 in 10.0 mi Calm Calm - N/A   Clear
10:53 PM 54.0 °F 51.1 °F 90% 30.20 in 10.0 mi Calm Calm - N/A   Clear
11:53 PM 53.1 °F 50.0 °F 89% 30.20 in 10.0 mi Calm Calm - N/A   Clear